LKPD Weather Reports


time (UTC)temp
C
wind
direction
speed
KPH
gust
KPH
rain 1hr
cm
rain 24hr
cm
rain mn
cm
humidity
%
barometer
mb
20260906010219 13 280 8.0 0.0 0.00 0.00 0.00 76 1023.0
20260906003209 16 290 12.9 0.0 0.00 0.00 0.00 67 1023.0
20260906001942 16 290 11.3 0.0 0.00 0.00 0.00 63
20260906000219 16 290 11.3 0.0 0.00 0.00 0.00 67 1023.0
20260905233209 15 290 3.2 0.0 0.00 0.00 0.00 72 1023.0
20260905231925 16 290 3.2 0.0 0.00 0.00 0.00 63
20260905230220 15 270 4.8 0.0 0.00 0.00 0.00 67 1023.0
20260905223209 16 250 8.0 0.0 0.00 0.00 0.00 67 1023.0
20260905222344 16 250 8.0 0.0 0.00 0.00 0.00 67
20260905220218 16 260 8.0 0.0 0.00 0.00 0.00 63 1023.0
20260905213209 16 280 12.9 0.0 0.00 0.00 0.00 59 1022.0
20260905211940 17 280 14.5 0.0 0.00 0.00 0.00 52
20260905210218 17 280 14.5 0.0 0.00 0.00 0.00 55 1022.0
20260905210045 15 260 12.9 0.0 0.00 0.00 0.00 67 1021.0
20260905205123 15 260 12.9 0.0 0.00 0.00 0.00 67 1021.0
20260905204723 15 260 12.9 0.0 0.00 0.00 0.00 67 1021.0
20260905204124 15 260 12.9 0.0 0.00 0.00 0.00 67 1021.0
20260905203224 15 260 12.9 0.0 0.00 0.00 0.00 67 1021.0
20260905201942 17 260 11.3 0.0 0.00 0.00 0.00 55
20260905200924 16 260 11.3 0.0 0.00 0.00 0.00 63 1021.0
20260905200327 16 260 11.3 0.0 0.00 0.00 0.00 63 1021.0
20260905195924 15 260 11.3 0.0 0.00 0.00 0.00 62 1021.0
20260905195224 15 260 11.3 0.0 0.00 0.00 0.00 62 1021.0
20260905194124 15 260 11.3 0.0 0.00 0.00 0.00 62 1021.0
20260905193437 15 260 11.3 0.0 0.00 0.00 0.00 62 1021.0
20260905193224 15 260 11.3 0.0 0.00 0.00 0.00 62 1021.0
20260905192725 15 270 11.3 0.0 0.00 0.00 0.00 62 1021.0
20260905192411 17 260 11.3 0.0 0.00 0.00 0.00 55
20260905192131 15 270 11.3 0.0 0.00 0.00 0.00 62 1021.0
20260905191624 15 270 11.3 0.0 0.00 0.00 0.00 62 1021.0
20260905181958 18 280 8.0 0.0 0.00 0.00 0.00 45
20260905181324 18 280 9.7 0.0 0.00 0.00 0.00 45 1020.0
20260905181124 18 280 9.7 0.0 0.00 0.00 0.00 45 1020.0
20260905180724 18 280 9.7 0.0 0.00 0.00 0.00 45 1020.0
20260905180326 18 280 9.7 0.0 0.00 0.00 0.00 45 1020.0
20260905180126 20 290 16.1 0.0 0.00 0.00 0.00 42 1019.0
20260905175424 20 290 16.1 0.0 0.00 0.00 0.00 42 1019.0
20260905175224 20 290 16.1 0.0 0.00 0.00 0.00 42 1019.0
20260905174724 20 290 16.1 0.0 0.00 0.00 0.00 42 1019.0
20260905174124 20 290 16.1 0.0 0.00 0.00 0.00 42 1019.0
20260905173438 20 290 16.1 0.0 0.00 0.00 0.00 42 1019.0
20260905172724 21 300 12.9 0.0 0.00 0.00 0.00 43 1019.0
20260905172131 21 300 12.9 0.0 0.00 0.00 0.00 43 1019.0
20260905171958 21 300 11.3 0.0 0.00 0.00 0.00 40
20260905171546 21 300 12.9 0.0 0.00 0.00 0.00 43 1019.0
20260905170538 21 300 12.9 0.0 0.00 0.00 0.00 43 1019.0
20260905170221 21 300 12.9 0.0 0.00 0.00 0.00 43 1019.0
20260905163824 21 290 22.5 0.0 0.00 0.00 0.00 43 1019.0
20260905163216 21 290 22.5 0.0 0.00 0.00 0.00 43 1019.0
20260905162923 22 280 24.1 0.0 0.00 0.00 0.00 40 1018.0
20260905162355 22 290 22.5 0.0 0.00 0.00 0.00 40
20260905162231 22 280 24.1 0.0 0.00 0.00 0.00 40 1018.0
20260905161624 22 280 24.1 0.0 0.00 0.00 0.00 40 1018.0
20260905161125 22 280 24.1 0.0 0.00 0.00 0.00 40 1018.0
20260905160824 22 280 24.1 0.0 0.00 0.00 0.00 40 1018.0
20260905160325 22 280 24.1 0.0 0.00 0.00 0.00 40 1018.0
20260905154724 22 300 25.7 0.0 0.00 0.00 0.00 40 1018.0
20260905154545 22 300 25.7 0.0 0.00 0.00 0.00 40 1018.0
20260905154224 22 300 25.7 0.0 0.00 0.00 0.00 40 1018.0
20260905151932 22 290 22.5 0.0 0.00 0.00 0.00 40
20260905151828 22 280 25.7 45.1 0.00 0.00 0.00 40 1018.0
20260905151125 22 280 25.7 45.1 0.00 0.00 0.00 40 1018.0
20260905150623 22 280 25.7 45.1 0.00 0.00 0.00 40 1018.0
20260905145923 22 280 29.0 0.0 0.00 0.00 0.00 40 1018.0
20260905145624 22 280 29.0 0.0 0.00 0.00 0.00 40 1018.0
20260905145123 22 280 29.0 0.0 0.00 0.00 0.00 40 1018.0
20260905144223 22 280 29.0 0.0 0.00 0.00 0.00 40 1018.0
20260905143725 22 280 29.0 0.0 0.00 0.00 0.00 40 1018.0
20260905142131 22 280 24.1 41.8 0.00 0.00 0.00 43 1018.0
20260905141850 22 290 25.7 41.8 0.00 0.00 0.00 40
20260905140437 22 280 24.1 41.8 0.00 0.00 0.00 43 1018.0
20260905140127 22 290 16.1 35.4 0.00 0.00 0.00 46 1019.0
20260905135046 22 290 16.1 35.4 0.00 0.00 0.00 46 1019.0
20260905134623 22 290 16.1 35.4 0.00 0.00 0.00 46 1019.0
20260905134224 22 290 16.1 35.4 0.00 0.00 0.00 46 1019.0
20260905133825 22 290 16.1 35.4 0.00 0.00 0.00 46 1019.0
20260905133437 22 290 16.1 35.4 0.00 0.00 0.00 46 1019.0
20260905133227 22 290 16.1 35.4 0.00 0.00 0.00 46 1019.0
20260905133124 21 280 20.9 0.0 0.00 0.00 0.00 49 1019.0
20260905132227 21 280 20.9 0.0 0.00 0.00 0.00 49 1019.0
20260905132141 21 290 22.5 0.0 0.00 0.00 0.00 49
20260905131623 21 280 20.9 0.0 0.00 0.00 0.00 49 1019.0
20260905131124 21 280 20.9 0.0 0.00 0.00 0.00 49 1019.0
20260905130724 21 280 20.9 0.0 0.00 0.00 0.00 49 1019.0
20260905130225 21 280 20.9 0.0 0.00 0.00 0.00 49 1019.0
20260905125623 22 270 27.4 0.0 0.00 0.00 0.00 46 1019.0
20260905125424 22 270 27.4 0.0 0.00 0.00 0.00 46 1019.0
20260905125224 22 270 27.4 0.0 0.00 0.00 0.00 46 1019.0
20260905124923 22 270 27.4 0.0 0.00 0.00 0.00 46 1019.0
20260905124545 22 270 27.4 0.0 0.00 0.00 0.00 46 1019.0
20260905124045 22 270 27.4 0.0 0.00 0.00 0.00 46 1019.0
20260905123624 22 270 27.4 0.0 0.00 0.00 0.00 46 1019.0
20260905123324 22 270 27.4 0.0 0.00 0.00 0.00 46 1019.0
20260905123124 21 270 25.7 0.0 0.00 0.00 0.00 52 1019.0
20260905122131 21 270 25.7 0.0 0.00 0.00 0.00 52 1019.0
20260905122053 21 270 25.7 0.0 0.00 0.00 0.00 49
20260905121735 21 270 25.7 0.0 0.00 0.00 0.00 52 1019.0
20260905121124 21 270 25.7 0.0 0.00 0.00 0.00 52 1019.0
20260905120539 21 270 25.7 0.0 0.00 0.00 0.00 52 1019.0
20260905115828 21 270 32.2 0.0 0.00 0.00 0.00 46 1019.0
20260905114045 21 270 32.2 0.0 0.00 0.00 0.00 46 1019.0
20260905113216 21 270 32.2 0.0 0.00 0.00 0.00 46 1019.0
20260905112724 21 260 32.2 0.0 0.00 0.00 0.00 49 1019.0
20260905112230 21 260 32.2 0.0 0.00 0.00 0.00 49 1019.0
20260905111956 21 260 35.4 53.1 0.00 0.00 0.00 49
20260905111831 21 260 32.2 0.0 0.00 0.00 0.00 49 1019.0
20260905110217 21 260 32.2 0.0 0.00 0.00 0.00 49 1019.0
20260905105224 20 270 25.7 0.0 0.00 0.00 0.00 56 1019.0
20260905105046 20 270 25.7 0.0 0.00 0.00 0.00 56 1019.0
20260905104624 20 270 25.7 0.0 0.00 0.00 0.00 56 1019.0
20260905104324 20 270 25.7 0.0 0.00 0.00 0.00 56 1019.0
20260905103217 20 270 25.7 0.0 0.00 0.00 0.00 56 1019.0
20260905102824 20 260 29.0 0.0 0.00 0.00 0.00 60 1019.0
20260905102433 20 270 29.0 0.0 0.00 0.00 0.00 60
20260905102329 20 260 29.0 0.0 0.00 0.00 0.00 60 1019.0
20260905101924 20 260 29.0 0.0 0.00 0.00 0.00 60 1019.0
20260905101424 20 260 29.0 0.0 0.00 0.00 0.00 60 1019.0
20260905100824 20 260 29.0 0.0 0.00 0.00 0.00 60 1019.0
20260905100328 20 260 29.0 0.0 0.00 0.00 0.00 60 1019.0
20260905095224 17 280 27.4 0.0 0.00 0.00 0.00 67 1019.0
20260905094824 17 280 27.4 0.0 0.00 0.00 0.00 67 1019.0
20260905094223 17 280 27.4 0.0 0.00 0.00 0.00 67 1019.0
20260905093725 17 280 27.4 0.0 0.00 0.00 0.00 67 1019.0
20260905092424 18 260 32.2 0.0 0.00 0.00 0.00 68 1019.0
20260905092033 17 280 29.0 0.0 0.00 0.00 0.00 67
20260905091937 18 260 32.2 0.0 0.00 0.00 0.00 68 1019.0
20260905090825 18 260 32.2 0.0 0.00 0.00 0.00 68 1019.0
20260905090220 18 260 32.2 0.0 0.00 0.00 0.00 68 1019.0
20260905084223 17 270 27.4 0.0 0.00 0.00 0.00 72 1019.0
20260905083217 17 270 27.4 0.0 0.00 0.00 0.00 72 1019.0
20260905081945 17 260 29.0 0.0 0.00 0.00 0.00 77
20260905080219 17 260 29.0 0.0 0.00 0.00 0.00 72 1018.0
20260905073216 16 250 24.1 0.0 0.00 0.00 0.00 82 1018.0
20260905072247 16 250 22.5 0.0 0.00 0.00 0.00 82
20260905070218 16 250 22.5 0.0 0.00 0.00 0.00 82 1018.0
20260905063217 15 250 12.9 0.0 0.00 0.00 0.00 87 1018.0
20260905061946 15 250 14.5 0.0 0.00 0.00 0.00 87
20260905060219 15 250 14.5 0.0 0.00 0.00 0.00 87 1018.0
20260905053209 15 250 20.9 0.0 0.00 0.00 0.00 82 1017.0
20260905051945 15 250 19.3 0.0 0.00 0.00 0.00 82
20260905050220 15 230 16.1 0.0 0.00 0.00 0.00 82 1017.0
20260905043210 15 220 14.5 0.0 0.00 0.00 0.00 87 1017.0
20260905042348 16 270 14.5 0.0 0.00 0.00 0.00 87
20260905040220 16 270 14.5 0.0 0.00 0.00 0.00 87 1017.0
20260905033210 17 290 9.7 0.0 0.00 0.00 0.00 88 1017.0
20260905031945 16 200 8.0 0.0 0.00 0.00 0.00 93
20260905031904 16 240 4.8 0.0 0.00 0.00 0.00 93 1016.0
20260905030219 17 200 8.0 0.0 0.00 0.00 0.00 88 1015.0
20260905023210 17 240 11.3 0.0 0.00 0.00 0.00 88 1016.0
20260905021945 17 290 11.3 0.0 0.00 0.00 0.00 88
20260905020218 17 290 9.7 0.0 0.00 0.00 0.00 88 1016.0
20260905013209 17 310 8.0 0.0 0.00 0.00 0.00 88 1015.0
20260905012247 17 280 11.3 0.0 0.00 0.00 0.00 82